Regional Weather Roundup
Issued by NWS Nashville, TN

Home | Current Version | Previous Version | Text Only | Print | Product List | Glossary On
Versions: 1 2 3 4 5 6 7 8 9 10 11 12 13 14 15 16 17 18 19 20 21 22 23 24 25 26 27 28 29 30 31 32 33 34 35 36 37 38 39 40 41 42 43 44 45 46 47 48 49 50
000
ASUS44 KOHX 051210
RWROHX
MIDDLE TENNESSEE HOURLY WEATHER ROUNDUP
NATIONAL WEATHER SERVICE NASHVILLE TN
600 AM CST THU MAR 05 2015

NOTE: "FAIR" INDICATES FEW OR NO CLOUDS BELOW 12,000 FEET WITH
NO SIGNIFICANT WEATHER AND/OR OBSTRUCTIONS TO VISIBILITY.

* THESE REPORTS ARE NOT UNDER NWS QUALITY CONTROL AND MAY NOT
  REPORT WEATHER SUCH AS PRECIPITATION AND FOG.


TNZ005>011-023>034-057-059-062>066-078-080-051300
...NORTHERN MIDDLE TENNESSEE...

CITY           SKY/WX    TMP DP  RH WIND       PRES   REMARKS
CLARKSVILLE    CLOUDY    19  15  84 N15       30.32R FOG     WCI   5
CROSSVILLE     LGT SNOW  30  26  85 N13G22    30.03F FOG     WCI  20
GALLATIN       CLOUDY    21  21 100 N12       30.24R VSB 1   WCI   9
DICKSON          N/A     16  16 100 N8        30.24R WCI   5
LIVINGSTON     CLOUDY    25  23  91 N12       30.11R WCI  14
NASHVILLE      SNOW      21  19  93 N10       30.26R VSB 1/2 WCI  10
PORTLAND         N/A     18  16  93 N10       30.23R WCI   6
SMYRNA         LGT SNOW  23  19  86 N6        30.25R VSB 1   WCI  16
SPARTA         CLOUDY    27  25  93 N8        30.10R WCI  18
$$
TNZ056-058-060-061-075>077-079-093>097-051300
...SOUTHERN MIDDLE TENNESSEE...

CITY           SKY/WX    TMP DP  RH WIND       PRES   REMARKS
COLUMBIA         N/A    N/A N/A N/A N10       30.19R
LEWISBURG      CLOUDY    24  20  85 N10       30.19R WCI  14
MCMINNVILLE    CLOUDY    28  28 100 N12       30.12R WCI  18
MURFREESBORO   CLOUDY    24  22  92 N9        30.21R WCI  14
SHELBYVILLE    CLOUDY    27  25  93 N10       30.16R WCI  17
TULLAHOMA      CLOUDY    27  25  93 N14         N/A  WCI  15
WINCHESTER     CLOUDY    30  28  93 N10       30.10R WCI  21
$$


...KEY TO REMARKS...
VSB - VISIBILITY IN MILES
WCI - WIND CHILL INDEX
HX  - HEAT INDEX



USA.gov is the U.S. government's official web portal to all federal, state and local government web resources and services.